Location: Amberg
(48.0613°N, 10.6820°E)
Time: 00:50:19
(UTC+00:00)

SJ-12 - Pass Details

Date: 18 November 2025
Orbit: 517 x 528 km, 97.8° (Epoch: 05 December)

Event Time Altitude Azimuth Distance (km) Brightness Sun altitude
Rises 17:03:31 0° 174° (S) 2,641 7.4 -14.5°
Reaches altitude 10° 17:05:38 10° 179° (S) 1,756 6.5 -14.8°
Maximum altitude 17:09:22 58° 259° (W) 611 4.3 -15.4°
Drops below altitude 10° 17:13:07 10° 339° (NNW) 1,764 6.5 -16.0°
Sets 17:15:15 0° 344° (NNW) 2,656 7.4 -16.4°
